Walhalla, ND

10:01 PM CST on December 14, 2017 (GMT -0600)
Walhalla

Weather History for K96D - December, 2012

Change the Weather History Date:

Tuesday, December 4, 2012

  Actual Average (KGAF) Record (KGAF)
Temperature  
Mean Temperature 10 °F -  
Max Temperature 15 °F 26 °F 47 °F (1965)
Min Temperature 6 °F 9 °F -24 °F (1964)
Degree Days  
Heating Degree Days 54    
Moisture  
Dew Point 6 °F    
Average Humidity 82    
Maximum Humidity 100    
Minimum Humidity 67    
Precipitation  
Precipitation 0.00 in - - ()
Sea Level Pressure  
Sea Level Pressure 30.23 in    
Wind  
Wind Speed 11 mph (West)    
Max Wind Speed 20 mph    
Max Gust Speed 25 mph    
Visibility 10 miles    
Events      
Averages and records for this station are not official NWS values.
T = Trace of Precipitation, MM = Missing Value Source: NWS Daily Summary

Daily Weather History Graph

Daily Weather History Graph

Search for Another Location

Airport or City:

Trip Planner

Search our weather history database for the weather conditions in past years. The results will help you decide how hot, cold, wet, or windy it might be!

Date:

Astronomy

Dec. 04, 2012 Rise Set
Actual Time 8:08 AM CST 4:35 PM CST
Civil Twilight 7:31 AM CST 5:12 PM CST
Nautical Twilight 6:51 AM CST 5:52 PM CST
Astronomical Twilight 6:13 AM CST 6:30 PM CST
Moon 10:44 PM CST (12/4) 11:45 AM CST (12/4)
Length of Visible Light 9h 40m
Length of Day
8h 27m
Waning Gibbous, 69% of the Moon is Illuminated
Dec 4
Waning Gibbous
Dec 6
Last Quarter
Dec 13
New
Dec 19
First Quarter
Dec 28
Full

Hourly Weather History & Observations

Time (CST) Temp. Windchill Dew Point Humidity Pressure Visibility Wind Dir Wind Speed Gust Speed Precip Events Conditions
12:15 AM 10.4 °F -4.8 °F 3.2 °F 73% 29.94 in 10.0 mi West 12.7 mph 18.4 mph N/A   Scattered Clouds
12:35 AM 8.6 °F -7.0 °F 1.4 °F 73% 29.95 in 10.0 mi West 12.7 mph 24.2 mph N/A   Mostly Cloudy
12:55 AM 10.4 °F -5.4 °F 1.4 °F 67% 29.96 in 10.0 mi West 13.8 mph 23.0 mph N/A   Overcast
1:15 AM 10.4 °F -8.2 °F 3.2 °F 73% 29.96 in 10.0 mi West 19.6 mph 25.3 mph N/A   Overcast
1:35 AM 10.4 °F -7.2 °F 1.4 °F 67% 29.97 in 10.0 mi WNW 17.3 mph 25.3 mph N/A   Overcast
1:55 AM 10.4 °F -6.0 °F 3.2 °F 73% 29.98 in 10.0 mi West 15.0 mph 20.7 mph N/A   Overcast
2:15 AM 10.4 °F -4.1 °F 3.2 °F 73% 30.00 in 10.0 mi West 11.5 mph 23.0 mph N/A   Overcast
2:55 AM 10.4 °F -6.6 °F 5.0 °F 79% 30.03 in 10.0 mi WNW 16.1 mph 24.2 mph N/A   Overcast
3:15 AM 10.4 °F -7.2 °F 5.0 °F 79% 30.04 in 10.0 mi West 17.3 mph 24.2 mph N/A   Overcast
3:35 AM 10.4 °F -4.8 °F 5.0 °F 79% 30.05 in 10.0 mi West 12.7 mph 23.0 mph N/A   Overcast
3:55 AM 10.4 °F -5.4 °F 5.0 °F 79% 30.06 in 10.0 mi West 13.8 mph 17.3 mph N/A   Mostly Cloudy
4:15 AM 10.4 °F -6.0 °F 5.0 °F 79% 30.07 in 10.0 mi WNW 15.0 mph 23.0 mph N/A   Scattered Clouds
4:35 AM 10.4 °F -5.4 °F 5.0 °F 79% 30.07 in 10.0 mi WNW 13.8 mph 19.6 mph N/A   Mostly Cloudy
4:55 AM 10.4 °F -5.4 °F 5.0 °F 79% 30.08 in 10.0 mi West 13.8 mph 23.0 mph N/A   Scattered Clouds
5:15 AM 10.4 °F -5.4 °F 5.0 °F 79% 30.08 in 10.0 mi West 13.8 mph 21.9 mph N/A   Clear
5:35 AM 8.6 °F -7.7 °F 3.2 °F 79% 30.11 in 10.0 mi West 13.8 mph 21.9 mph N/A   Clear
5:55 AM 8.6 °F -6.3 °F 3.2 °F 79% 30.12 in 10.0 mi West 11.5 mph 17.3 mph N/A   Clear
6:15 AM 8.6 °F -5.5 °F 3.2 °F 79% 30.12 in 10.0 mi West 10.4 mph 18.4 mph N/A   Clear
6:35 AM 8.6 °F -7.0 °F 3.2 °F 79% 30.13 in 10.0 mi WNW 12.7 mph - N/A   Clear
6:55 AM 8.6 °F -7.0 °F 3.2 °F 79% 30.14 in 10.0 mi WNW 12.7 mph 16.1 mph N/A   Clear
7:15 AM 8.6 °F -5.5 °F 3.2 °F 79% 30.15 in 10.0 mi WNW 10.4 mph - N/A   Clear
7:35 AM 8.6 °F -5.5 °F 3.2 °F 79% 30.17 in 10.0 mi WNW 10.4 mph - N/A   Clear
7:55 AM 8.6 °F -5.5 °F 3.2 °F 79% 30.18 in 10.0 mi West 10.4 mph 16.1 mph N/A   Clear
8:15 AM 8.6 °F -5.5 °F 3.2 °F 79% 30.19 in 10.0 mi WNW 10.4 mph - N/A   Clear
8:35 AM 8.6 °F -5.5 °F 3.2 °F 79% 30.21 in 10.0 mi West 10.4 mph - N/A   Partly Cloudy
8:55 AM 8.6 °F -4.7 °F 3.2 °F 79% 30.22 in 10.0 mi WNW 9.2 mph - N/A   Partly Cloudy
9:15 AM 8.6 °F -4.7 °F 3.2 °F 79% 30.23 in 10.0 mi WNW 9.2 mph 16.1 mph N/A   Clear
9:35 AM 10.4 °F -3.3 °F 5.0 °F 79% 30.25 in 10.0 mi WNW 10.4 mph 18.4 mph N/A   Partly Cloudy
9:55 AM 10.4 °F -3.3 °F 5.0 °F 79% 30.26 in 10.0 mi WNW 10.4 mph 17.3 mph N/A   Scattered Clouds
10:15 AM 10.4 °F -1.5 °F 5.0 °F 79% 30.27 in 10.0 mi WNW 8.1 mph - N/A   Partly Cloudy
10:35 AM 10.4 °F -4.8 °F 5.0 °F 79% 30.29 in 10.0 mi WNW 12.7 mph 18.4 mph N/A   Scattered Clouds
10:55 AM 12.2 °F -2.5 °F 5.0 °F 73% 30.29 in 10.0 mi WNW 12.7 mph 17.3 mph N/A   Scattered Clouds
11:15 AM 12.2 °F -1.0 °F 5.0 °F 73% 30.30 in 10.0 mi West 10.4 mph 18.4 mph N/A   Mostly Cloudy
11:35 AM 14.0 °F 1.2 °F 6.8 °F 73% 30.30 in 10.0 mi WNW 10.4 mph - N/A   Mostly Cloudy
11:55 AM 14.0 °F 0.5 °F 6.8 °F 73% 30.29 in 10.0 mi WNW 11.5 mph - N/A   Mostly Cloudy
12:15 PM 14.0 °F 2.9 °F 6.8 °F 73% 30.29 in 10.0 mi WNW 8.1 mph - N/A   Mostly Cloudy
12:35 PM 15.8 °F 6.1 °F 8.6 °F 73% 30.29 in 10.0 mi NW 6.9 mph - N/A   Mostly Cloudy
12:55 PM 15.8 °F 6.1 °F 8.6 °F 73% 30.29 in 10.0 mi WNW 6.9 mph - N/A   Overcast
1:15 PM 15.8 °F 7.2 °F 8.6 °F 73% 30.29 in 10.0 mi NNW 5.8 mph - N/A   Overcast
1:35 PM 15.8 °F 8.6 °F 8.6 °F 73% 30.29 in 10.0 mi NW 4.6 mph - N/A   Overcast
1:55 PM 15.8 °F 10.2 °F 8.6 °F 73% 30.30 in 10.0 mi NW 3.5 mph - N/A   Overcast
2:15 PM 15.8 °F 10.2 °F 8.6 °F 73% 30.29 in 10.0 mi WNW 3.5 mph - N/A   Mostly Cloudy
2:35 PM 15.8 °F - 8.6 °F 73% 30.30 in 10.0 mi Calm Calm - N/A   Mostly Cloudy
2:55 PM 15.8 °F - 8.6 °F 73% 30.31 in 10.0 mi Calm Calm - N/A   Overcast
3:15 PM 15.8 °F - 10.4 °F 79% 30.31 in 10.0 mi Calm Calm - N/A   Overcast
3:35 PM 15.8 °F - 10.4 °F 79% 30.31 in 10.0 mi Calm Calm - N/A   Mostly Cloudy
3:55 PM 15.8 °F - 8.6 °F 73% 30.33 in 10.0 mi Calm Calm - N/A   Scattered Clouds
4:15 PM 15.8 °F - 8.6 °F 73% 30.34 in 10.0 mi Calm Calm - N/A   Partly Cloudy
4:35 PM 14.0 °F 5.1 °F 10.4 °F 86% 30.35 in 10.0 mi SE 5.8 mph - N/A   Clear
4:55 PM 14.0 °F 6.5 °F 10.4 °F 86% 30.35 in 10.0 mi SE 4.6 mph - N/A   Partly Cloudy
5:15 PM 12.2 °F 4.3 °F 8.6 °F 85% 30.34 in 10.0 mi ESE 4.6 mph - N/A   Clear
5:35 PM 10.4 °F 4.0 °F 8.6 °F 92% 30.34 in 10.0 mi ESE 3.5 mph - N/A   Clear
5:55 PM 10.4 °F 4.0 °F 8.6 °F 92% 30.36 in 10.0 mi SSE 3.5 mph - N/A   Clear
6:15 PM 10.4 °F 0.8 °F 8.6 °F 92% 30.35 in 10.0 mi SE 5.8 mph - N/A   Clear
6:35 PM 8.6 °F -1.3 °F 8.6 °F 100% 30.34 in 10.0 mi SSE 5.8 mph - N/A   Clear
6:55 PM 8.6 °F -1.3 °F 8.6 °F 100% 30.34 in 10.0 mi SSE 5.8 mph - N/A   Clear
7:15 PM 8.6 °F -2.6 °F 8.6 °F 100% 30.34 in 10.0 mi South 6.9 mph - N/A   Clear
7:35 PM 8.6 °F -2.6 °F 8.6 °F 100% 30.35 in 10.0 mi South 6.9 mph - N/A   Clear
7:55 PM 8.6 °F -2.6 °F 6.8 °F 92% 30.35 in 10.0 mi South 6.9 mph - N/A   Clear
8:15 PM 8.6 °F 0.1 °F 6.8 °F 92% 30.34 in 10.0 mi SSE 4.6 mph - N/A   Clear
8:35 PM 6.8 °F -5.9 °F 6.8 °F 100% 30.33 in 10.0 mi SSE 8.1 mph - N/A   Clear
8:55 PM 6.8 °F -5.9 °F 6.8 °F 100% 30.34 in 10.0 mi SSE 8.1 mph - N/A   Clear
9:15 PM 6.8 °F -5.9 °F 5.0 °F 92% 30.35 in - South 8.1 mph - N/A   Unknown
9:35 PM 6.8 °F -5.9 °F 6.8 °F 100% 30.35 in - South 8.1 mph - N/A   Unknown
9:55 PM 6.8 °F -5.9 °F 6.8 °F 100% 30.35 in - South 8.1 mph - N/A   Unknown
10:15 PM 6.8 °F -6.9 °F 6.8 °F 100% 30.36 in 10.0 mi South 9.2 mph - N/A   Clear
10:35 PM 8.6 °F -2.6 °F 6.8 °F 92% 30.35 in 10.0 mi SSE 6.9 mph - N/A   Clear
10:55 PM 8.6 °F -4.7 °F 8.6 °F 100% 30.34 in 10.0 mi SSE 9.2 mph - N/A   Clear
11:15 PM 8.6 °F -5.5 °F 8.6 °F 100% 30.33 in 10.0 mi SSE 10.4 mph - N/A   Clear
11:35 PM 10.4 °F -2.4 °F 8.6 °F 92% 30.33 in 10.0 mi SSE 9.2 mph - N/A   Clear
11:55 PM 10.4 °F -3.3 °F 8.6 °F 92% 30.31 in 10.0 mi SSE 10.4 mph - N/A   Clear